Time,TemperatureF,DewpointF,PressureIn,WindDirection,WindDirectionDegrees,WindSpeedMPH,WindSpeedGustMPH,Humidity,HourlyPrecipIn,Conditions,Clouds,dailyrainin,SolarRadiationWatts/m^2,SoftwareType,DateUTC
2013-05-26 00:07:00,44.8,39.0,30.30,NNE,24,0.0,0.0,79,0.00,,,0.00,0,weatherlink.com 1.10,2013-05-26 05:07:00,
2013-05-26 00:22:00,44.6,39.0,30.30,NNE,24,0.0,0.0,80,0.00,,,0.00,0,weatherlink.com 1.10,2013-05-26 05:22:00,
2013-05-26 00:37:00,44.3,39.0,30.30,NNE,24,0.0,0.0,81,0.00,,,0.00,0,weatherlink.com 1.10,2013-05-26 05:37:00,
2013-05-26 00:52:00,45.0,39.0,30.30,NNE,24,0.0,0.0,78,0.00,,,0.00,0,weatherlink.com 1.10,2013-05-26 05:52:00,
2013-05-26 01:07:00,44.6,38.0,30.30,NNE,24,0.0,0.0,79,0.00,,,0.00,0,weatherlink.com 1.10,2013-05-26 06:07:00,
2013-05-26 01:22:00,45.0,38.0,30.29,NNE,24,0.0,0.0,77,0.00,,,0.00,0,weatherlink.com 1.10,2013-05-26 06:22:00,
2013-05-26 01:37:00,45.4,38.0,30.29,NNE,24,0.0,0.0,74,0.00,,,0.00,0,weatherlink.com 1.10,2013-05-26 06:37:00,
2013-05-26 01:52:00,45.0,38.0,30.29,NNE,24,0.0,0.0,76,0.00,,,0.00,0,weatherlink.com 1.10,2013-05-26 06:52:00,
2013-05-26 02:07:00,44.3,38.0,30.28,NNE,24,0.0,0.0,78,0.00,,,0.00,0,weatherlink.com 1.10,2013-05-26 07:07:00,
2013-05-26 02:22:00,43.7,38.0,30.27,NNE,24,0.0,0.0,80,0.00,,,0.00,0,weatherlink.com 1.10,2013-05-26 07:22:00,
2013-05-26 02:37:00,43.9,38.0,30.27,NNE,24,0.0,0.0,80,0.00,,,0.00,0,weatherlink.com 1.10,2013-05-26 07:37:00,
2013-05-26 02:52:00,43.8,38.0,30.28,NNE,24,0.0,1.0,79,0.00,,,0.00,0,weatherlink.com 1.10,2013-05-26 07:52:00,
2013-05-26 03:07:00,43.1,38.0,30.28,NNE,24,0.0,0.0,81,0.00,,,0.00,0,weatherlink.com 1.10,2013-05-26 08:07:00,
2013-05-26 03:22:00,42.8,37.0,30.30,NNE,24,0.0,0.0,81,0.00,,,0.00,0,weatherlink.com 1.10,2013-05-26 08:22:00,
2013-05-26 03:37:00,42.7,38.0,30.29,NNE,24,0.0,1.0,82,0.00,,,0.00,0,weatherlink.com 1.10,2013-05-26 08:37:00,
2013-05-26 03:52:00,42.9,37.0,30.28,NNE,24,0.0,0.0,81,0.00,,,0.00,0,weatherlink.com 1.10,2013-05-26 08:52:00,
2013-05-26 04:07:00,43.3,38.0,30.28,NNE,24,0.0,1.0,80,0.00,,,0.00,0,weatherlink.com 1.10,2013-05-26 09:07:00,
2013-05-26 04:22:00,43.5,38.0,30.28,NNE,24,0.0,1.0,80,0.00,,,0.00,0,weatherlink.com 1.10,2013-05-26 09:22:00,
2013-05-26 04:37:00,43.4,38.0,30.28,NNE,24,0.0,0.0,81,0.00,,,0.00,0,weatherlink.com 1.10,2013-05-26 09:37:00,
2013-05-26 04:52:00,44.0,39.0,30.29,NNE,24,0.0,1.0,81,0.00,,,0.00,0,weatherlink.com 1.10,2013-05-26 09:52:00,
2013-05-26 05:07:00,43.5,39.0,30.29,NNE,24,0.0,0.0,83,0.00,,,0.00,0,weatherlink.com 1.10,2013-05-26 10:07:00,
2013-05-26 05:22:00,43.5,39.0,30.29,NNE,24,0.0,1.0,85,0.00,,,0.00,7,weatherlink.com 1.10,2013-05-26 10:22:00,
2013-05-26 05:37:00,44.0,40.0,30.30,NNE,24,0.0,1.0,85,0.00,,,0.00,19,weatherlink.com 1.10,2013-05-26 10:37:00,
2013-05-26 05:52:00,45.3,41.0,30.29,NE,46,0.0,2.0,84,0.00,,,0.00,40,weatherlink.com 1.10,2013-05-26 10:52:00,
2013-05-26 06:07:00,46.3,42.0,30.29,NE,46,1.0,2.0,84,0.00,,,0.00,63,weatherlink.com 1.10,2013-05-26 11:07:00,
2013-05-26 06:22:00,47.3,42.0,30.30,NE,46,1.0,2.0,81,0.00,,,0.00,86,weatherlink.com 1.10,2013-05-26 11:22:00,
2013-05-26 06:37:00,48.0,42.0,30.30,NE,52,1.0,3.0,80,0.00,,,0.00,93,weatherlink.com 1.10,2013-05-26 11:37:00,
2013-05-26 06:52:00,48.1,42.0,30.30,NE,52,1.0,2.0,80,0.00,,,0.00,111,weatherlink.com 1.10,2013-05-26 11:52:00,
2013-05-26 07:07:00,48.4,43.0,30.31,NE,46,2.0,3.0,80,0.00,,,0.00,128,weatherlink.com 1.10,2013-05-26 12:07:00,
2013-05-26 07:22:00,48.7,43.0,30.30,ENE,57,2.0,4.0,80,0.00,,,0.00,163,weatherlink.com 1.10,2013-05-26 12:22:00,
2013-05-26 07:37:00,48.9,43.0,30.30,NE,42,0.0,3.0,79,0.00,,,0.00,153,weatherlink.com 1.10,2013-05-26 12:37:00,
2013-05-26 07:53:00,49.5,44.0,30.30,ENE,71,0.0,3.0,80,0.00,,,0.00,269,weatherlink.com 1.10,2013-05-26 12:53:00,
2013-05-26 08:08:00,50.3,44.0,30.30,ENE,57,0.0,3.0,78,0.00,,,0.00,313,weatherlink.com 1.10,2013-05-26 13:08:00,
2013-05-26 08:23:00,51.4,44.0,30.31,ENE,71,0.0,3.0,77,0.00,,,0.00,436,weatherlink.com 1.10,2013-05-26 13:23:00,
2013-05-26 08:38:00,53.5,45.0,30.31,ENE,78,0.0,2.0,74,0.00,,,0.00,359,weatherlink.com 1.10,2013-05-26 13:38:00,
2013-05-26 08:53:00,52.1,44.0,30.30,ENE,66,1.0,2.0,73,0.00,,,0.00,496,weatherlink.com 1.10,2013-05-26 13:53:00,
2013-05-26 09:08:00,52.5,45.0,30.30,ENE,61,0.0,3.0,75,0.00,,,0.00,533,weatherlink.com 1.10,2013-05-26 14:08:00,
2013-05-26 09:23:00,50.5,44.0,30.30,NE,51,1.0,4.0,77,0.00,,,0.00,272,weatherlink.com 1.10,2013-05-26 14:23:00,
2013-05-26 09:38:00,51.5,45.0,30.30,ENE,58,1.0,3.0,78,0.00,,,0.00,427,weatherlink.com 1.10,2013-05-26 14:38:00,
2013-05-26 09:53:00,52.2,46.0,30.30,NE,49,0.0,3.0,78,0.00,,,0.00,336,weatherlink.com 1.10,2013-05-26 14:53:00,
2013-05-26 10:08:00,54.1,46.0,30.31,South,182,1.0,5.0,75,0.00,,,0.00,729,weatherlink.com 1.10,2013-05-26 15:08:00,
2013-05-26 10:23:00,56.5,48.0,30.31,South,188,3.0,4.0,72,0.00,,,0.00,800,weatherlink.com 1.10,2013-05-26 15:23:00,
2013-05-26 10:38:00,55.8,47.0,30.31,South,178,1.0,5.0,72,0.00,,,0.00,865,weatherlink.com 1.10,2013-05-26 15:38:00,
2013-05-26 10:53:00,55.3,46.0,30.31,NNE,20,2.0,5.0,72,0.00,,,0.00,853,weatherlink.com 1.10,2013-05-26 15:53:00,
2013-05-26 11:08:00,56.5,47.0,30.31,South,182,1.0,4.0,70,0.00,,,0.00,789,weatherlink.com 1.10,2013-05-26 16:08:00,
2013-05-26 11:23:00,56.6,47.0,30.31,ENE,77,1.0,3.0,71,0.00,,,0.00,909,weatherlink.com 1.10,2013-05-26 16:23:00,
2013-05-26 11:38:00,54.4,46.0,30.31,ENE,67,1.0,5.0,74,0.00,,,0.00,610,weatherlink.com 1.10,2013-05-26 16:38:00,
2013-05-26 11:53:00,55.0,46.0,30.30,NE,42,3.0,4.0,73,0.00,,,0.00,768,weatherlink.com 1.10,2013-05-26 16:53:00,
2013-05-26 12:08:00,55.2,47.0,30.30,East,80,0.0,3.0,74,0.00,,,0.00,805,weatherlink.com 1.10,2013-05-26 17:08:00,
2013-05-26 12:23:00,53.4,47.0,30.30,NE,34,1.0,4.0,78,0.00,,,0.00,587,weatherlink.com 1.10,2013-05-26 17:23:00,
2013-05-26 12:38:00,54.5,47.0,30.29,ENE,57,0.0,4.0,76,0.00,,,0.00,847,weatherlink.com 1.10,2013-05-26 17:38:00,
2013-05-26 12:53:00,54.5,46.0,30.29,NE,55,2.0,3.0,74,0.00,,,0.00,701,weatherlink.com 1.10,2013-05-26 17:53:00,
2013-05-26 13:08:00,52.6,47.0,30.28,NE,38,3.0,4.0,80,0.00,,,0.00,362,weatherlink.com 1.10,2013-05-26 18:08:00,
2013-05-26 13:23:00,53.1,47.0,30.27,NE,51,1.0,5.0,80,0.00,,,0.00,645,weatherlink.com 1.10,2013-05-26 18:23:00,
2013-05-26 13:38:00,51.9,46.0,30.27,NE,42,2.0,6.0,79,0.00,,,0.00,570,weatherlink.com 1.10,2013-05-26 18:38:00,
2013-05-26 13:53:00,52.1,46.0,30.27,NE,40,1.0,6.0,79,0.00,,,0.00,708,weatherlink.com 1.10,2013-05-26 18:53:00,
2013-05-26 14:08:00,53.3,47.0,30.26,ENE,64,2.0,5.0,79,0.00,,,0.00,656,weatherlink.com 1.10,2013-05-26 19:08:00,
2013-05-26 14:23:00,53.9,48.0,30.27,NE,56,2.0,5.0,80,0.00,,,0.00,830,weatherlink.com 1.10,2013-05-26 19:23:00,
2013-05-26 14:38:00,54.9,47.0,30.26,ENE,78,2.0,5.0,75,0.00,,,0.00,770,weatherlink.com 1.10,2013-05-26 19:38:00,
2013-05-26 14:53:00,54.1,47.0,30.26,North,5,1.0,6.0,76,0.00,,,0.00,636,weatherlink.com 1.10,2013-05-26 19:53:00,
2013-05-26 15:08:00,53.8,47.0,30.25,NNW,344,2.0,6.0,78,0.00,,,0.00,686,weatherlink.com 1.10,2013-05-26 20:08:00,
2013-05-26 15:23:00,53.3,46.0,30.25,North,351,2.0,7.0,76,0.00,,,0.00,519,weatherlink.com 1.10,2013-05-26 20:23:00,
2013-05-26 15:38:00,52.3,46.0,30.25,ENE,63,2.0,5.0,78,0.00,,,0.00,367,weatherlink.com 1.10,2013-05-26 20:38:00,
2013-05-26 15:53:00,51.6,46.0,30.25,North,9,1.0,5.0,80,0.00,,,0.00,279,weatherlink.com 1.10,2013-05-26 20:53:00,
2013-05-26 16:08:00,51.1,45.0,30.24,NE,51,2.0,4.0,81,0.00,,,0.00,251,weatherlink.com 1.10,2013-05-26 21:08:00,
2013-05-26 16:23:00,50.8,46.0,30.24,NE,36,3.0,6.0,82,0.00,,,0.00,202,weatherlink.com 1.10,2013-05-26 21:23:00,
2013-05-26 16:38:00,50.9,46.0,30.23,WSW,257,1.0,5.0,83,0.00,,,0.00,220,weatherlink.com 1.10,2013-05-26 21:38:00,
2013-05-26 16:53:00,50.9,45.0,30.22,NNW,346,0.0,4.0,81,0.00,,,0.00,214,weatherlink.com 1.10,2013-05-26 21:53:00,
2013-05-26 17:08:00,50.6,45.0,30.21,ENE,66,3.0,4.0,81,0.00,,,0.00,262,weatherlink.com 1.10,2013-05-26 22:08:00,
2013-05-26 17:24:00,51.3,46.0,30.20,ENE,71,2.0,4.0,81,0.00,,,0.00,169,weatherlink.com 1.10,2013-05-26 22:24:00,
2013-05-26 17:39:00,51.1,45.0,30.20,NNW,336,1.0,4.0,79,0.00,,,0.00,155,weatherlink.com 1.10,2013-05-26 22:39:00,
2013-05-26 17:54:00,50.4,44.0,30.20,NE,51,1.0,5.0,80,0.00,,,0.00,86,weatherlink.com 1.10,2013-05-26 22:54:00,
2013-05-26 18:09:00,49.7,44.0,30.20,ENE,65,2.0,5.0,82,0.00,,,0.00,56,weatherlink.com 1.10,2013-05-26 23:09:00,
2013-05-26 18:24:00,49.5,45.0,30.19,NE,40,1.0,3.0,83,0.00,,,0.00,25,weatherlink.com 1.10,2013-05-26 23:24:00,
2013-05-26 18:39:00,48.9,44.0,30.19,NE,45,1.0,4.0,83,0.00,,,0.00,21,weatherlink.com 1.10,2013-05-26 23:39:00,
2013-05-26 18:54:00,48.8,44.0,30.18,NE,47,1.0,4.0,83,0.00,,,0.00,30,weatherlink.com 1.10,2013-05-26 23:54:00,
2013-05-26 19:09:00,48.9,44.0,30.19,NW,321,0.0,8.0,83,0.00,,,0.00,28,weatherlink.com 1.10,2013-05-27 00:09:00,
2013-05-26 19:24:00,49.0,44.0,30.18,NE,55,1.0,3.0,83,0.00,,,0.00,26,weatherlink.com 1.10,2013-05-27 00:24:00,
2013-05-26 19:39:00,49.0,44.0,30.18,ENE,59,1.0,3.0,83,0.00,,,0.00,25,weatherlink.com 1.10,2013-05-27 00:39:00,
2013-05-26 19:54:00,49.2,43.0,30.18,ENE,58,0.0,3.0,80,0.00,,,0.00,16,weatherlink.com 1.10,2013-05-27 00:54:00,
2013-05-26 20:09:00,49.4,43.0,30.18,ENE,58,0.0,1.0,79,0.00,,,0.00,5,weatherlink.com 1.10,2013-05-27 01:09:00,
2013-05-26 20:24:00,49.1,43.0,30.19,North,5,0.0,4.0,80,0.00,,,0.00,0,weatherlink.com 1.10,2013-05-27 01:24:00,
2013-05-26 20:39:00,48.9,43.0,30.19,NNE,26,0.0,3.0,81,0.00,,,0.00,0,weatherlink.com 1.10,2013-05-27 01:39:00,
2013-05-26 20:54:00,48.8,44.0,30.19,NNE,26,1.0,2.0,82,0.00,,,0.00,0,weatherlink.com 1.10,2013-05-27 01:54:00,
2013-05-26 21:09:00,49.3,43.0,30.20,NE,43,1.0,2.0,79,0.00,,,0.00,0,weatherlink.com 1.10,2013-05-27 02:09:00,
2013-05-26 21:24:00,49.2,43.0,30.19,NE,49,2.0,6.0,79,0.00,,,0.00,0,weatherlink.com 1.10,2013-05-27 02:24:00,
2013-05-26 21:39:00,49.0,43.0,30.19,ENE,59,1.0,3.0,79,0.00,,,0.00,0,weatherlink.com 1.10,2013-05-27 02:39:00,
2013-05-26 21:54:00,49.0,43.0,30.19,NW,322,0.0,4.0,81,0.00,,,0.00,0,weatherlink.com 1.10,2013-05-27 02:54:00,
2013-05-26 22:09:00,49.2,43.0,30.19,NNE,13,1.0,5.0,79,0.00,,,0.00,0,weatherlink.com 1.10,2013-05-27 03:09:00,
2013-05-26 22:24:00,49.1,43.0,30.18,ENE,65,2.0,3.0,79,0.00,,,0.00,0,weatherlink.com 1.10,2013-05-27 03:24:00,
2013-05-26 22:39:00,49.4,43.0,30.18,North,11,0.0,3.0,78,0.00,,,0.00,0,weatherlink.com 1.10,2013-05-27 03:39:00,
2013-05-26 22:54:00,49.2,43.0,30.18,NNE,13,2.0,4.0,80,0.00,,,0.00,0,weatherlink.com 1.10,2013-05-27 03:54:00,
2013-05-26 23:09:00,49.4,44.0,30.18,NE,48,1.0,4.0,80,0.00,,,0.00,0,weatherlink.com 1.10,2013-05-27 04:09:00,
2013-05-26 23:25:00,49.6,43.0,30.18,NW,325,0.0,3.0,78,0.00,,,0.00,0,weatherlink.com 1.10,2013-05-27 04:25:00,
2013-05-26 23:39:00,49.7,43.0,30.18,ENE,59,1.0,4.0,78,0.00,,,0.00,0,weatherlink.com 1.10,2013-05-27 04:39:00,
2013-05-26 23:54:00,49.8,44.0,30.18,ENE,59,2.0,3.0,79,0.00,,,0.00,0,weatherlink.com 1.10,2013-05-27 04:54:00,